DAL8877 KSAN-KATL

Flight info

Callsign DAL8877
Flight time N/A
Altitude 33000
Route ZZOOO4 TGOLD PXR ONM CNX TURKI CDS ADM GRAZN MEM HUTCC KNSAW RUSSA GLAVN2
Aircraft B739/M-SDE2E3FGHIRWXY/LB1

Departure

Time 2026-04-26 05:22
Airport San Diego International Airport (KSAN)

Arrival

Time N/A
Airport Hartsfield Jackson Atlanta International Airport (KATL)
Time Latitude Longitude Altitude Speed Heading
2026-04-26 04:43 32.73247 -117.20537 20 ft 0 kts 171°
2026-04-26 04:55 32.73255 -117.20539 20 ft 4 kts 171°
2026-04-26 04:55 32.73282 -117.20544 21 ft 4 kts 171°
2026-04-26 04:55 32.73309 -117.20549 22 ft 5 kts 171°
2026-04-26 04:56 32.73330 -117.20552 22 ft 4 kts 167°
2026-04-26 04:56 32.73356 -117.20558 21 ft 4 kts 182°
2026-04-26 04:56 32.73377 -117.20556 22 ft 4 kts 186°
2026-04-26 04:56 32.73386 -117.20555 20 ft 1 kts 186°
2026-04-26 04:59 32.73383 -117.20555 21 ft 3 kts 187°
2026-04-26 04:59 32.73380 -117.20556 21 ft 0 kts 188°
2026-04-26 05:00 32.73377 -117.20556 21 ft 3 kts 189°
2026-04-26 05:00 32.73337 -117.20585 22 ft 9 kts 233°
2026-04-26 05:00 32.73335 -117.20659 20 ft 9 kts 284°
2026-04-26 05:00 32.73387 -117.20687 21 ft 9 kts 359°
2026-04-26 05:01 32.73456 -117.20686 20 ft 11 kts 359°
2026-04-26 05:01 32.73527 -117.20683 21 ft 9 kts 13°
2026-04-26 05:01 32.73553 -117.20668 20 ft 0 kts 34°
2026-04-26 05:02 32.73554 -117.20667 21 ft 1 kts 34°
2026-04-26 05:02 32.73579 -117.20644 19 ft 6 kts 40°
2026-04-26 05:02 32.73606 -117.20598 18 ft 8 kts 77°
2026-04-26 05:02 32.73607 -117.20526 15 ft 9 kts 91°
2026-04-26 05:03 32.73606 -117.20454 16 ft 9 kts 91°
2026-04-26 05:03 32.73599 -117.20386 17 ft 8 kts 105°
2026-04-26 05:03 32.73584 -117.20321 19 ft 8 kts 105°
2026-04-26 05:03 32.73568 -117.20259 21 ft 8 kts 107°
2026-04-26 05:04 32.73558 -117.20219 22 ft 8 kts 105°
2026-04-26 05:04 32.73543 -117.20160 22 ft 7 kts 105°
2026-04-26 05:04 32.73524 -117.20080 21 ft 13 kts 106°
2026-04-26 05:04 32.73502 -117.19991 22 ft 10 kts 106°
2026-04-26 05:05 32.73485 -117.19918 23 ft 9 kts 106°
2026-04-26 05:05 32.73467 -117.19844 23 ft 9 kts 106°
2026-04-26 05:05 32.73446 -117.19758 25 ft 15 kts 106°
2026-04-26 05:05 32.73422 -117.19660 22 ft 12 kts 105°
2026-04-26 05:06 32.73402 -117.19573 22 ft 10 kts 106°
2026-04-26 05:06 32.73381 -117.19491 23 ft 10 kts 107°
2026-04-26 05:06 32.73362 -117.19410 22 ft 10 kts 105°
2026-04-26 05:06 32.73343 -117.19333 20 ft 10 kts 106°
2026-04-26 05:07 32.73324 -117.19258 19 ft 9 kts 106°
2026-04-26 05:07 32.73307 -117.19184 19 ft 9 kts 106°
2026-04-26 05:07 32.73289 -117.19113 21 ft 10 kts 107°
2026-04-26 05:07 32.73269 -117.19033 21 ft 10 kts 106°
2026-04-26 05:08 32.73251 -117.18954 21 ft 10 kts 106°
2026-04-26 05:08 32.73232 -117.18878 22 ft 10 kts 105°
2026-04-26 05:08 32.73212 -117.18798 24 ft 13 kts 107°
2026-04-26 05:08 32.73189 -117.18697 23 ft 12 kts 106°
2026-04-26 05:09 32.73165 -117.18600 22 ft 12 kts 106°
2026-04-26 05:09 32.73143 -117.18505 22 ft 12 kts 104°
2026-04-26 05:09 32.73120 -117.18413 20 ft 11 kts 106°
2026-04-26 05:09 32.73098 -117.18324 22 ft 11 kts 106°
2026-04-26 05:10 32.73077 -117.18237 19 ft 11 kts 106°
2026-04-26 05:10 32.73056 -117.18152 17 ft 10 kts 106°
2026-04-26 05:10 32.73036 -117.18070 16 ft 10 kts 106°
2026-04-26 05:10 32.73016 -117.17991 17 ft 10 kts 106°
2026-04-26 05:11 32.72998 -117.17913 17 ft 10 kts 106°
2026-04-26 05:11 32.72984 -117.17856 18 ft 7 kts 106°
2026-04-26 05:11 32.72973 -117.17813 15 ft 4 kts 106°
2026-04-26 05:11 32.72971 -117.17803 15 ft 0 kts 104°
2026-04-26 05:12 32.72970 -117.17801 15 ft 2 kts 104°
2026-04-26 05:12 32.72963 -117.17771 15 ft 4 kts 105°
2026-04-26 05:12 32.72957 -117.17742 15 ft 2 kts 106°
2026-04-26 05:13 32.72956 -117.17742 16 ft 0 kts 106°
2026-04-26 05:14 32.72951 -117.17721 15 ft 8 kts 107°
2026-04-26 05:14 32.72948 -117.17697 16 ft 0 kts 84°
2026-04-26 05:15 32.72949 -117.17693 16 ft 1 kts 82°
2026-04-26 05:15 32.72952 -117.17676 16 ft 0 kts 76°
2026-04-26 05:20 32.72953 -117.17671 16 ft 4 kts 75°
2026-04-26 05:20 32.72975 -117.17597 19 ft 11 kts 56°
2026-04-26 05:21 32.73025 -117.17597 18 ft 8 kts 290°
2026-04-26 05:21 32.73053 -117.17710 17 ft 37 kts 285°
2026-04-26 05:21 32.73190 -117.18275 22 ft 103 kts 285°
2026-04-26 05:21 32.73439 -117.19304 21 ft 155 kts 286°
2026-04-26 05:22 32.73774 -117.20665 208 ft 181 kts 287°
2026-04-26 05:22 32.74141 -117.22089 896 ft 182 kts 288°
2026-04-26 05:22 32.74530 -117.23545 1595 ft 184 kts 287°
2026-04-26 05:22 32.74863 -117.25073 1931 ft 203 kts 286°
2026-04-26 05:23 32.75254 -117.26718 2277 ft 215 kts 286°
2026-04-26 05:23 32.75695 -117.28452 2632 ft 224 kts 286°
2026-04-26 05:23 32.76174 -117.30260 3109 ft 234 kts 286°
2026-04-26 05:23 32.76591 -117.32141 3779 ft 237 kts 275°
2026-04-26 05:24 32.76303 -117.34040 4413 ft 236 kts 242°
2026-04-26 05:24 32.75313 -117.35581 5010 ft 239 kts 217°
2026-04-26 05:24 32.73804 -117.36402 5637 ft 244 kts 190°
2026-04-26 05:24 32.72110 -117.36250 6193 ft 257 kts 161°
2026-04-26 05:25 32.70628 -117.35038 6887 ft 262 kts 136°
2026-04-26 05:25 32.69457 -117.33382 7494 ft 267 kts 134°
2026-04-26 05:25 32.68264 -117.31698 8220 ft 268 kts 133°
2026-04-26 05:25 32.67075 -117.30011 8805 ft 271 kts 134°
2026-04-26 05:26 32.65862 -117.28276 9462 ft 274 kts 130°
2026-04-26 05:26 32.64637 -117.26562 10093 ft 271 kts 137°
2026-04-26 05:26 32.63361 -117.24857 10610 ft 282 kts 135°
2026-04-26 05:26 32.62342 -117.22841 10967 ft 300 kts 107°
2026-04-26 05:27 32.62446 -117.20294 11138 ft 324 kts 82°
2026-04-26 05:27 32.62508 -117.17601 11351 ft 335 kts 98°
2026-04-26 05:27 32.62264 -117.14888 11931 ft 329 kts 103°
2026-04-26 05:27 32.61962 -117.12136 12197 ft 345 kts 99°
2026-04-26 05:28 32.62216 -117.09198 12322 ft 370 kts 80°
2026-04-26 05:28 32.63047 -117.06238 12425 ft 389 kts 68°
2026-04-26 05:28 32.64159 -117.03259 12548 ft 403 kts 69°
2026-04-26 05:28 32.65241 -117.00113 12687 ft 422 kts 70°
2026-04-26 05:29 32.66317 -116.96830 12885 ft 432 kts 72°
2026-04-26 05:29 32.66899 -116.93359 13197 ft 435 kts 92°
2026-04-26 05:29 32.66848 -116.89781 13809 ft 434 kts 94°
2026-04-26 05:29 32.66904 -116.86188 14332 ft 437 kts 93°
2026-04-26 05:30 32.66947 -116.82557 14769 ft 442 kts 94°
2026-04-26 05:30 32.67033 -116.78892 15288 ft 447 kts 91°
2026-04-26 05:30 32.67139 -116.75208 15717 ft 448 kts 93°
2026-04-26 05:30 32.67094 -116.71495 16139 ft 451 kts 96°
2026-04-26 05:31 32.67062 -116.67757 16650 ft 456 kts 95°
2026-04-26 05:31 32.67011 -116.63998 17071 ft 458 kts 96°
2026-04-26 05:31 32.66903 -116.60187 17421 ft 465 kts 97°
2026-04-26 05:31 32.66804 -116.56359 17938 ft 466 kts 96°
2026-04-26 05:32 32.66707 -116.52505 18264 ft 470 kts 96°
2026-04-26 05:32 32.66657 -116.48598 18513 ft 477 kts 94°
2026-04-26 05:32 32.66629 -116.44658 18989 ft 478 kts 96°
2026-04-26 05:32 32.66630 -116.40707 19328 ft 483 kts 92°
2026-04-26 05:33 32.66925 -116.36723 19556 ft 486 kts 88°
2026-04-26 05:33 32.67366 -116.32698 19834 ft 494 kts 86°
2026-04-26 05:33 32.67792 -116.28669 20394 ft 490 kts 88°
2026-04-26 05:33 32.68161 -116.24634 20580 ft 495 kts 87°
2026-04-26 05:34 32.68578 -116.20556 20771 ft 501 kts 88°
2026-04-26 05:34 32.68925 -116.16429 21234 ft 501 kts 88°
2026-04-26 05:34 32.69299 -116.12323 21509 ft 503 kts 88°
2026-04-26 05:34 32.69677 -116.08211 21753 ft 506 kts 88°
2026-04-26 05:35 32.70058 -116.04044 22097 ft 504 kts 88°
2026-04-26 05:35 32.70427 -115.99870 22169 ft 513 kts 89°
2026-04-26 05:35 32.70789 -115.95653 22584 ft 513 kts 88°
2026-04-26 05:35 32.71179 -115.91453 22876 ft 513 kts 87°
2026-04-26 05:36 32.71566 -115.87217 22987 ft 516 kts 88°
2026-04-26 05:36 32.71951 -115.82960 23102 ft 519 kts 88°
2026-04-26 05:36 32.72356 -115.78673 23329 ft 523 kts 88°
2026-04-26 05:36 32.72764 -115.74386 23641 ft 523 kts 88°
2026-04-26 05:37 32.73165 -115.70088 23911 ft 524 kts 88°
2026-04-26 05:37 32.73558 -115.65775 24095 ft 527 kts 87°
2026-04-26 05:37 32.73958 -115.61440 24306 ft 529 kts 88°
2026-04-26 05:37 32.74343 -115.57079 24476 ft 532 kts 88°
2026-04-26 05:38 32.74726 -115.52710 24706 ft 534 kts 88°
2026-04-26 05:38 32.75072 -115.48310 24970 ft 534 kts 90°
2026-04-26 05:38 32.75250 -115.43912 25198 ft 534 kts 92°
2026-04-26 05:38 32.75309 -115.40989 25323 ft 535 kts 94°
2026-04-26 05:39 32.75379 -115.35070 25560 ft 538 kts 94°
2026-04-26 05:39 32.75407 -115.32064 25686 ft 540 kts 94°
2026-04-26 05:39 32.75444 -115.27601 25940 ft 540 kts 94°
2026-04-26 05:39 32.75521 -115.23133 26160 ft 542 kts 93°
2026-04-26 05:40 32.75627 -115.18647 26316 ft 545 kts 93°
2026-04-26 05:40 32.75730 -115.14136 26556 ft 545 kts 93°
2026-04-26 05:40 32.75833 -115.09638 26863 ft 545 kts 93°
2026-04-26 05:40 32.75934 -115.05143 27109 ft 545 kts 93°
2026-04-26 05:41 32.76027 -115.00638 27388 ft 545 kts 93°
2026-04-26 05:41 32.76125 -114.96137 27697 ft 544 kts 93°
2026-04-26 05:41 32.76221 -114.91647 27949 ft 545 kts 93°
2026-04-26 05:41 32.76311 -114.87137 28233 ft 546 kts 93°
2026-04-26 05:42 32.76398 -114.82633 28612 ft 544 kts 93°
2026-04-26 05:42 32.76489 -114.78150 28957 ft 543 kts 93°
2026-04-26 05:42 32.76569 -114.73654 29160 ft 546 kts 94°
2026-04-26 05:42 32.76648 -114.69141 29440 ft 547 kts 93°
2026-04-26 05:43 32.76730 -114.64630 29772 ft 545 kts 93°
2026-04-26 05:43 32.76815 -114.60130 30121 ft 544 kts 93°
2026-04-26 05:43 32.76894 -114.55640 30402 ft 544 kts 94°
2026-04-26 05:43 32.76965 -114.51124 30614 ft 548 kts 94°
2026-04-26 05:44 32.77029 -114.46611 31111 ft 543 kts 94°
2026-04-26 05:44 32.77089 -114.42141 31530 ft 542 kts 94°
2026-04-26 05:44 32.77129 -114.37658 31708 ft 544 kts 95°
2026-04-26 05:44 32.77174 -114.33147 31859 ft 546 kts 94°
2026-04-26 05:45 32.77231 -114.28640 32125 ft 546 kts 94°
2026-04-26 05:45 32.77291 -114.24140 32533 ft 541 kts 94°
2026-04-26 05:45 32.77343 -114.19685 32850 ft 538 kts 95°
2026-04-26 05:45 32.77400 -114.15234 32845 ft 540 kts 94°